Погода в Йошкар-Оле

Россия / Республика Марий Эл     56°37′51″N   47°53′09″E
темп.,
°C
ветер,
м/с
пор.,
м/с
влажн.,
%
обл.,
%
осадки,
мм/ч
давл.,
гПа
погр.,
м
19 апреля, пн
пн1900:00+1всв5117243 0.0 1028477
03:000всв6137446 0.0 1029490
06:000всв6136681 0.0 1030534
09:00+4в7104737 0.0 10301031
12:00+6в7103234 0.0 10301541
15:00+7в793116 0.0 10301643
18:00+5в611380 0.0 1030705
21:00+2в513470 0.0 1031441
20 апреля, вт
вт2000:000в413570 0.0 1032358
03:00−1в412550 0.0 1032340
06:000в512510 0.0 1032407
09:00+6вюв69390 0.0 10321042
12:00+8вюв68300 0.0 10321519
15:00+9вюв68290 0.0 10301440
18:00+7вюв510384 0.0 1028621
21:00+3в51351100 0.0 1028355
21 апреля, ср
ср2100:00+3вюв61552100 0.0 1026503
03:00+3вюв71650100 0.0 1025656
06:00+3юв81847100 0.0 1022847
09:00+4юв81750100 0.3 10211059
12:00+1юв92094100 2.9 1020842
15:00+2ююв91788100 4.9 1020847
18:00+2ююв81591100 0.0 1020765
21:00+2ююв71494100 0.0 1020617
22 апреля, чт
чт2200:00+2ююв61395100 0.1 1020569
03:00+2ююв51296100 0.9 1020495
06:00+2ююв51097100 0.6 1021446
09:00+4ю4794100 0.6 1021382
12:00+8ю578399 0.0 1021629
15:00+9ю6981100 0.0 1021813
18:00+8ююв5118930 0.0 1022439
21:00+6ююв511954 0.1 1022257
23 апреля, пт
пт2300:00+5ююв49965 0.0 1023173
03:00+5ююв3993100 0.0 1023193
06:00+6ю3892100 0.0 1024230
09:00+11ю467098 0.0 1024339
12:00+15ю45565 0.0 10231102
15:00+15ю444980 0.4 10221674
18:00+12ююв486763 0.2 1022389
21:00+8ююв410855 0.2 1023296